EW6283 Weather Reports


Display with metric or nautical units.
time (UTC)temp
F
wind
direction
speed
MPH
gust
MPH
rain 1hr
in
rain 24hr
in
rain mn
in
humidity
%
barometer
mb
20260510160528 61 297 7.0 14.0 0.00 0.00 0.00 70 1010.7
20260510160145 61 285 13.0 14.0 0.00 0.00 0.00 69 1010.7
20260510155528 61 239 5.0 12.0 0.00 0.00 0.00 69 1010.6
20260510155257 62 229 6.0 15.0 0.00 0.00 0.00 71 1010.6
20260510154529 62 219 6.0 11.0 0.00 0.00 0.00 71 1010.4
20260510154143 62 228 5.0 11.0 0.00 0.00 0.00 71 1010.5
20260510153528 62 228 7.0 13.0 0.00 0.00 0.00 69 1010.4
20260510153029 62 210 3.0 13.0 0.00 0.00 0.00 68 1010.4
20260510152528 62 213 5.0 11.0 0.00 0.00 0.00 70 1010.4
20260510152027 62 215 9.0 11.0 0.00 0.00 0.00 70 1010.4
20260510151528 62 207 7.0 9.0 0.00 0.00 0.00 70 1010.3
20260510151027 62 160 2.0 9.0 0.00 0.00 0.00 71 1010.3
20260510150642 61 211 2.0 14.0 0.00 0.00 0.00 71 1010.2
20260510150028 61 226 5.0 14.0 0.00 0.00 0.00 70 1010.3
20260510145528 61 249 5.0 11.0 0.00 0.00 0.00 69 1010.3
20260510145026 61 258 7.0 20.0 0.00 0.00 0.00 70 1010.2
20260510144529 61 256 9.0 20.0 0.00 0.00 0.00 69 1010.1
20260510144027 62 278 7.0 12.0 0.00 0.00 0.00 69 1010.1
20260510143528 62 191 1.0 8.0 0.00 0.00 0.00 75 1010.0
20260510143300 62 224 3.0 9.0 0.00 0.00 0.00 75 1010.0
20260510142527 61 196 9.0 11.0 0.00 0.00 0.00 77 1009.9
20260510142142 61 189 2.0 11.0 0.00 0.00 0.00 77 1009.9
20260510141529 61 193 4.0 9.0 0.00 0.00 0.00 76 1009.9
20260510141027 60 166 3.0 11.0 0.00 0.00 0.00 77 1009.9
20260510140644 60 328 2.0 11.0 0.00 0.00 0.00 78 1010.0
20260510140029 59 271 1.0 11.0 0.00 0.00 0.00 78 1010.1
20260510135527 59 354 2.0 11.0 0.00 0.00 0.00 79 1010.0
20260510135027 59 147 6.0 11.0 0.00 0.00 0.00 79 1010.0
20260510134644 59 133 5.0 10.0 0.00 0.00 0.00 79 1010.0
20260510134027 58 102 9.0 9.0 0.00 0.00 0.00 80 1009.9
20260510133643 58 130 4.0 8.0 0.00 0.00 0.00 80 1009.9
20260510133028 58 143 3.0 6.0 0.00 0.00 0.00 81 1009.9
20260510132528 57 138 4.0 6.0 0.00 0.00 0.00 82 1010.0
20260510132027 57 100 1.0 9.0 0.00 0.00 0.00 83 1010.1
20260510131643 57 149 4.0 9.0 0.00 0.00 0.00 83 1010.1
20260510131028 56 179 2.0 7.0 0.00 0.00 0.00 84 1010.1
20260510130527 56 158 2.0 6.0 0.00 0.00 0.00 83 1010.1
20260510130144 56 138 3.0 7.0 0.00 0.00 0.00 84 1010.1
20260510125643 56 162 4.0 7.0 0.00 0.00 0.00 83 1010.1
20260510125027 56 93 3.0 9.0 0.00 0.00 0.00 85 1010.1
20260510124644 56 209 1.0 7.0 0.00 0.00 0.00 85 1010.0
20260510124027 55 300 1.0 11.0 0.00 0.00 0.00 85 1009.9
20260510123643 55 158 5.0 11.0 0.00 0.00 0.00 86 1010.0
20260510123259 54 99 1.0 10.0 0.00 0.00 0.00 87 1010.0
20260510122528 54 169 1.0 10.0 0.00 0.00 0.00 86 1010.0
20260510122027 54 146 3.0 10.0 0.00 0.00 0.00 86 1010.0
20260510121644 54 175 4.0 9.0 0.00 0.00 0.00 87 1010.1
20260510121027 54 142 2.0 10.0 0.00 0.00 0.00 88 1010.0
20260510120643 53 172 3.0 9.0 0.00 0.00 0.00 89 1010.1
20260510120029 53 197 3.0 9.0 0.00 0.00 0.00 90 1010.0
20260510115527 52 229 0.0 7.0 0.00 0.00 0.00 90 1010.0
20260510115143 52 251 2.0 6.0 0.00 0.00 0.00 90 1010.1
20260510114643 52 177 5.0 8.0 0.00 0.00 0.00 90 1010.0
20260510114142 52 161 1.0 10.0 0.00 0.00 0.00 90 1010.1
20260510113643 52 172 7.0 10.0 0.00 0.00 0.00 90 1010.2
20260510113142 52 167 5.0 8.0 0.00 0.00 0.00 90 1010.1
20260510112527 52 208 0.0 5.0 0.00 0.00 0.00 91 1010.2
20260510112142 52 214 1.0 6.0 0.00 0.00 0.00 91 1010.1
20260510111529 51 171 1.0 7.0 0.00 0.00 0.00 91 1010.1
20260510111146 51 195 1.0 7.0 0.00 0.00 0.00 91 1010.1
20260510110758 51 200 5.0 6.0 0.00 0.00 0.00 91 1010.0
20260510110028 51 251 2.0 7.0 0.00 0.00 0.00 91 1009.9
20260510105529 51 164 5.0 6.0 0.00 0.00 0.00 92 1009.9
20260510105144 51 187 1.0 6.0 0.00 0.00 0.00 91 1009.8
20260510104529 51 179 2.0 5.0 0.00 0.00 0.00 92 1009.6
20260510104027 51 199 1.0 5.0 0.00 0.00 0.00 92 1009.6
20260510103528 51 215 1.0 4.0 0.00 0.00 0.00 92 1009.4
20260510103029 51 150 0.0 4.0 0.00 0.00 0.00 92 1009.4
20260510102527 51 183 2.0 3.0 0.00 0.00 0.00 92 1009.3
20260510102027 51 167 0.0 4.0 0.00 0.00 0.00 92 1009.3
20260510101531 51 208 1.0 5.0 0.00 0.00 0.00 92 1009.2
20260510101143 51 215 3.0 5.0 0.00 0.00 0.00 92 1009.2
20260510100528 51 193 2.0 3.0 0.00 0.00 0.00 92 1009.2
20260510100028 50 188 1.0 5.0 0.00 0.00 0.00 92 1009.0
20260510095527 50 188 2.0 6.0 0.00 0.00 0.00 92 1009.0
20260510095142 50 185 2.0 7.0 0.00 0.00 0.00 92 1009.0
20260510094530 51 177 2.0 6.0 0.00 0.00 0.00 92 1009.0
20260510094027 50 188 3.0 8.0 0.00 0.00 0.00 93 1008.9
20260510093528 50 268 1.0 5.0 0.00 0.00 0.00 93 1008.7
20260510093028 50 108 0.0 5.0 0.00 0.00 0.00 93 1008.8
20260510092528 50 164 4.0 5.0 0.00 0.00 0.00 93 1008.6
20260510092027 50 145 3.0 11.0 0.00 0.00 0.00 93 1008.5
20260510091530 50 141 2.0 11.0 0.00 0.00 0.00 93 1008.6
20260510091258 50 168 9.0 12.0 0.00 0.00 0.00 92 1008.6
20260510090802 50 185 6.0 10.0 0.00 0.00 0.00 92 1008.6
20260510090029 50 248 5.0 10.0 0.00 0.00 0.00 92 1008.5
20260510085643 51 195 6.0 9.0 0.00 0.00 0.00 92 1008.6
20260510085028 51 181 6.0 9.0 0.00 0.00 0.00 91 1008.4
20260510084643 51 154 3.0 9.0 0.00 0.00 0.00 91 1008.3
20260510084027 51 202 5.0 8.0 0.00 0.00 0.00 91 1008.4
20260510083643 51 193 5.0 9.0 0.00 0.00 0.00 91 1008.5
20260510083144 51 197 7.0 9.0 0.00 0.00 0.00 91 1008.5
20260510082642 51 216 7.0 9.0 0.00 0.00 0.00 91 1008.5
20260510082142 51 130 4.0 10.0 0.00 0.00 0.00 91 1008.2
20260510081530 51 172 7.0 7.0 0.00 0.00 0.00 91 1008.6
20260510081027 51 233 1.0 7.0 0.00 0.00 0.00 91 1009.0
20260510080528 51 147 3.0 5.0 0.00 0.00 0.00 91 1008.9
20260510080029 51 158 0.0 4.0 0.00 0.00 0.00 91 1008.9
20260510075528 51 196 1.0 5.0 0.00 0.00 0.00 91 1009.1
20260510075027 51 217 3.0 5.0 0.00 0.00 0.00 91 1009.2
20260510074529 51 210 3.0 4.0 0.00 0.00 0.00 91 1009.1
20260510074028 51 199 0.0 5.0 0.00 0.00 0.00 91 1009.2
20260510073528 51 202 3.0 5.0 0.00 0.00 0.00 91 1009.2
20260510073028 51 217 3.0 4.0 0.00 0.00 0.00 91 1009.4
20260510072528 51 239 0.0 5.0 0.00 0.00 0.00 91 1009.3
20260510072142 51 228 0.0 7.0 0.00 0.00 0.00 91 1009.2
20260510071800 51 228 4.0 7.0 0.00 0.00 0.00 91 1009.3
20260510071027 51 214 4.0 9.0 0.00 0.00 0.00 91 1009.2
20260510070528 51 147 3.0 6.0 0.00 0.00 0.00 91 1009.1
20260510070144 51 144 1.0 7.0 0.00 0.00 0.00 91 1009.1
20260510065644 51 188 1.0 9.0 0.00 0.00 0.00 91 1009.1
20260510065027 51 160 6.0 10.0 0.00 0.00 0.00 91 1009.0
20260510064529 51 139 8.0 9.0 0.00 0.00 0.00 91 1008.9
20260510064027 51 257 4.0 9.0 0.00 0.00 0.00 91 1008.9
20260510063528 51 187 1.0 11.0 0.00 0.00 0.00 91 1008.8
20260510063145 51 164 10.0 11.0 0.00 0.00 0.00 91 1008.8
20260510062527 51 187 3.0 12.0 0.00 0.00 0.00 91 1008.7
20260510062027 51 192 6.0 12.0 0.00 0.00 0.00 91 1008.8
20260510061529 51 243 2.0 9.0 0.00 0.00 0.00 91 1008.7
20260510061027 51 170 6.0 9.0 0.00 0.00 0.00 91 1008.8
20260510060643 51 197 2.0 10.0 0.00 0.00 0.00 91 1008.8
20260510060028 51 190 3.0 10.0 0.00 0.00 0.00 91 1008.9
20260510055528 51 197 5.0 11.0 0.00 0.00 0.00 91 1008.9
20260510055259 51 132 5.0 11.0 0.00 0.00 0.00 91 1009.0
20260510054643 51 187 4.0 6.0 0.00 0.00 0.00 91 1009.1
20260510054142 51 216 2.0 7.0 0.00 0.00 0.00 91 1009.1
20260510053528 51 215 3.0 5.0 0.00 0.00 0.00 91 1009.2
20260510053029 51 187 0.0 3.0 0.00 0.00 0.00 91 1009.2
20260510052757 51 187 0.0 3.0 0.00 0.00 0.00 91 1009.0
20260510052027 51 160 1.0 3.0 0.00 0.00 0.00 91 1009.1
20260510051530 51 189 2.0 3.0 0.00 0.00 0.00 91 1009.1
20260510051258 51 200 0.0 5.0 0.00 0.00 0.00 91 1008.9
20260510050528 51 131 2.0 7.0 0.00 0.00 0.00 91 1009.2
20260510050143 51 152 4.0 8.0 0.00 0.00 0.00 91 1009.3
20260510045528 51 213 1.0 7.0 0.00 0.00 0.00 91 1009.2
20260510045257 51 253 1.0 8.0 0.00 0.00 0.00 91 1009.1
20260510044528 51 216 5.0 8.0 0.00 0.00 0.00 90 1009.1
20260510044028 51 197 3.0 7.0 0.00 0.00 0.00 90 1009.1
20260510043642 51 198 2.0 7.0 0.00 0.00 0.00 90 1009.2
20260510043028 51 199 3.0 7.0 0.00 0.00 0.00 90 1009.2
20260510042528 51 176 1.0 8.0 0.00 0.00 0.00 90 1009.1
20260510042027 51 157 5.0 8.0 0.00 0.00 0.00 90 1009.2
20260510041529 51 192 2.0 7.0 0.00 0.00 0.00 90 1009.1
20260510041028 51 146 4.0 9.0 0.00 0.00 0.00 90 1009.1
20260510040527 51 214 3.0 9.0 0.00 0.00 0.00 90 1009.2
20260510040028 51 209 1.0 8.0 0.00 0.00 0.00 90 1009.3
20260510035528 51 189 2.0 7.0 0.00 0.60 0.60 89 1009.2
20260510035028 51 154 6.0 7.0 0.00 0.60 0.60 89 1009.0
20260510034644 51 145 1.0 8.0 0.00 0.60 0.60 89 1009.0
20260510034027 51 183 0.0 8.0 0.00 0.60 0.60 89 1009.1
20260510033643 51 260 1.0 7.0 0.00 0.60 0.60 89 1009.1
20260510033029 51 218 2.0 4.0 0.00 0.60 0.60 89 1009.1
20260510032527 51 140 0.0 4.0 0.00 0.60 0.60 89 1009.3
20260510032143 52 203 0.0 5.0 0.00 0.60 0.60 88 1009.3
20260510031529 52 195 4.0 5.0 0.00 0.60 0.60 88 1009.4
20260510031142 52 187 2.0 8.0 0.00 0.60 0.60 88 1009.3
20260510030528 52 193 6.0 8.0 0.00 0.60 0.60 88 1009.4
20260510030027 51 203 3.0 8.0 0.00 0.60 0.60 89 1009.3
20260510025528 51 202 4.0 8.0 0.00 0.60 0.60 89 1009.2
20260510025027 51 208 4.0 9.0 0.00 0.60 0.60 89 1009.2
20260510024529 51 185 7.0 9.0 0.00 0.60 0.60 90 1009.3
20260510024028 51 231 1.0 7.0 0.00 0.60 0.60 90 1009.3
20260510023528 51 220 1.0 4.0 0.00 0.60 0.60 90 1009.4
20260510023029 51 212 2.0 5.0 0.00 0.60 0.60 90 1009.4
20260510022528 51 230 3.0 4.0 0.00 0.60 0.60 90 1009.4
20260510022142 51 213 1.0 4.0 0.00 0.60 0.60 90 1009.4
20260510021644 51 213 2.0 3.0 0.00 0.60 0.60 90 1009.4
20260510021027 51 213 2.0 3.0 0.00 0.60 0.60 90 1009.3
20260510020527 51 168 0.0 0.0 0.00 0.60 0.60 90 1009.2
20260510020030 51 168 0.0 2.0 0.00 0.60 0.60 89 1009.3
20260510015643 51 149 0.0 5.0 0.00 0.60 0.60 89 1009.3
20260510015027 51 149 1.0 8.0 0.00 0.60 0.60 89 1009.4
20260510014528 51 199 4.0 6.0 0.00 0.60 0.60 89 1009.5
20260510014143 51 224 0.0 6.0 0.00 0.60 0.60 89 1009.5
20260510013642 51 224 0.0 8.0 0.00 0.60 0.60 89 1009.5
20260510013144 51 164 4.0 4.0 0.00 0.60 0.60 89 1009.6
20260510012527 51 215 2.0 5.0 0.00 0.60 0.60 89 1009.4
20260510012143 51 228 2.0 5.0 0.00 0.60 0.60 89 1009.5
20260510011529 51 232 1.0 6.0 0.00 0.60 0.60 89 1009.4
20260510011030 52 220 4.0 6.0 0.00 0.60 0.60 88 1009.4
20260510010527 52 213 5.0 7.0 0.00 0.60 0.60 88 1009.4
20260510010144 52 218 3.0 6.0 0.00 0.60 0.60 88 1009.4
20260510005527 52 187 1.0 9.0 0.00 0.60 0.60 88 1009.3
20260510005028 52 190 1.0 9.0 0.00 0.60 0.60 88 1009.2
20260510004528 52 158 2.0 8.0 0.00 0.60 0.60 87 1009.1
20260510004257 52 228 5.0 9.0 0.00 0.60 0.60 88 1009.0
20260510003757 51 210 2.0 9.0 0.00 0.60 0.60 88 1008.9
20260510003029 51 116 7.0 9.0 0.00 0.60 0.60 89 1008.8
20260510002529 51 191 1.0 6.0 0.00 0.60 0.60 89 1008.8
20260510002142 51 170 1.0 5.0 0.00 0.60 0.60 89 1008.7
20260510001528 51 120 3.0 5.0 0.00 0.60 0.60 89 1008.6
20260510001028 51 156 2.0 7.0 0.00 0.60 0.60 89 1008.5
20260510000528 52 179 2.0 7.0 0.00 0.60 0.60 89 1008.5
20260510000028 52 135 1.0 7.0 0.00 0.60 0.60 89 1008.4
20260509235642 52 196 3.0 6.0 0.00 0.60 0.60 88 1008.5
20260509235027 52 83 2.0 9.0 0.00 0.60 0.60 88 1008.3
20260509234644 52 220 1.0 9.0 0.00 0.60 0.60 88 1008.3
20260509234142 52 274 1.0 10.0 0.00 0.60 0.60 88 1008.2
20260509233757 52 140 8.0 10.0 0.00 0.60 0.60 88 1008.2
20260509233028 52 135 4.0 10.0 0.00 0.60 0.60 88 1008.2
20260509232528 52 190 4.0 8.0 0.00 0.60 0.60 89 1008.1
20260509232027 52 114 6.0 11.0 0.00 0.60 0.60 89 1008.2
20260509231528 52 116 3.0 12.0 0.00 0.60 0.60 89 1008.1
20260509231028 52 120 3.0 10.0 0.00 0.60 0.60 89 1008.1
20260509230528 52 131 9.0 10.0 0.00 0.60 0.60 89 1008.1
20260509230029 52 138 4.0 7.0 0.00 0.60 0.60 89 1008.2
20260509225527 52 177 2.0 7.0 0.00 0.60 0.60 89 1008.2
20260509225028 52 223 0.0 7.0 0.00 0.60 0.60 89 1008.2
20260509224528 52 206 1.0 8.0 0.00 0.60 0.60 89 1008.2
20260509224028 52 200 2.0 8.0 0.00 0.60 0.60 89 1008.2
20260509223643 52 197 4.0 7.0 0.00 0.60 0.60 90 1008.3
20260509223028 52 208 1.0 8.0 0.00 0.60 0.60 90 1008.3
20260509222527 52 230 2.0 8.0 0.00 0.60 0.60 90 1008.3
20260509222027 52 162 5.0 9.0 0.00 0.60 0.60 91 1008.2
20260509221529 52 157 2.0 8.0 0.00 0.60 0.60 90 1008.2
20260509221027 52 129 3.0 7.0 0.00 0.60 0.60 91 1008.3
20260509220643 52 216 1.0 7.0 0.00 0.60 0.60 91 1008.2
20260509220028 52 181 2.0 10.0 0.00 0.60 0.60 91 1008.2
20260509215643 52 184 6.0 10.0 0.00 0.60 0.60 91 1008.2
20260509215027 52 201 2.0 7.0 0.00 0.60 0.60 92 1008.3
20260509214528 51 164 1.0 8.0 0.00 0.60 0.60 93 1008.3
20260509214143 51 131 1.0 6.0 0.00 0.60 0.60 94 1008.3
20260509213528 51 224 0.0 2.0 0.00 0.60 0.60 94 1008.4
20260509213143 51 224 0.0 4.0 0.00 0.60 0.60 95 1008.5
20260509212527 50 224 2.0 3.0 0.00 0.60 0.60 95 1008.7
20260509212143 50 224 2.0 4.0 0.00 0.60 0.60 95 1008.6
20260509211644 49 225 2.0 4.0 0.00 0.60 0.60 95 1008.7
20260509211028 49 279 0.0 2.0 0.00 0.60 0.60 95 1008.6
20260509210527 48 320 0.0 2.0 0.00 0.60 0.60 95 1008.7
20260509210144 48 320 0.0 4.0 0.00 0.60 0.60 95 1008.7
20260509205528 48 4 1.0 5.0 0.00 0.60 0.60 95 1008.8
20260509205027 48 324 3.0 5.0 0.00 0.60 0.60 95 1009.0
20260509204529 48 336 3.0 4.0 0.00 0.60 0.60 95 1009.1
20260509204027 48 227 0.0 4.0 0.05 0.60 0.60 95 1009.2
20260509203528 48 354 4.0 4.0 0.06 0.60 0.60 95 1009.3
20260509203258 48 288 2.0 3.0 0.06 0.60 0.60 95 1009.4
20260509202528 47 336 0.0 2.0 0.04 0.59 0.59 95 1009.5
20260509202027 47 337 1.0 3.0 0.04 0.59 0.59 95 1009.5
20260509201528 47 336 1.0 3.0 0.05 0.57 0.57 95 1009.5
20260509201028 47 345 2.0 3.0 0.08 0.57 0.57 95 1009.5
20260509200528 47 59 1.0 2.0 0.11 0.57 0.57 95 1009.6
20260509200028 47 59 0.0 2.0 0.11 0.56 0.56 94 1009.6
20260509195643 47 60 0.0 2.0 0.09 0.56 0.56 94 1009.7
20260509195027 47 59 0.0 2.0 0.09 0.55 0.55 95 1009.7
20260509194529 47 81 0.0 2.0 0.09 0.54 0.54 94 1009.7
20260509194028 47 14 0.0 2.0 0.09 0.54 0.54 95 1009.7
20260509193528 47 11 0.0 1.0 0.10 0.53 0.53 95 1009.8
20260509193028 47 8 0.0 1.0 0.05 0.52 0.52 94 1009.9
20260509192527 47 4 0.0 1.0 0.06 0.51 0.51 95 1009.9
20260509192027 47 4 0.0 3.0 0.06 0.51 0.51 95 1009.8
20260509191644 47 8 1.0 3.0 0.06 0.51 0.51 95 1009.9
20260509191027 46 301 0.0 3.0 0.07 0.50 0.50 94 1009.9
20260509190527 46 43 2.0 3.0 0.07 0.50 0.50 94 1009.8
20260509190029 46 48 0.0 4.0 0.07 0.49 0.49 94 1009.8
20260509185527 46 45 1.0 4.0 0.07 0.48 0.48 94 1009.8
20260509185027 46 342 3.0 4.0 0.08 0.48 0.48 94 1009.9
20260509184529 46 19 2.0 4.0 0.10 0.47 0.47 94 1009.9
20260509184027 46 54 2.0 4.0 0.10 0.47 0.47 94 1009.9
20260509183642 46 70 1.0 3.0 0.12 0.46 0.46 94 1009.9
20260509183144 46 48 1.0 3.0 0.11 0.45 0.45 94 1010.0
20260509182642 46 45 1.0 4.0 0.12 0.44 0.44 94 1010.1
20260509182142 46 40 2.0 4.0 0.10 0.43 0.43 94 1010.1
20260509181528 46 21 2.0 4.0 0.15 0.42 0.42 94 1010.1
20260509181027 46 16 0.0 3.0 0.17 0.41 0.41 94 1010.1
20260509180642 46 56 0.0 3.0 0.14 0.40 0.40 94 1010.2
20260509180144 46 335 0.0 0.0 0.12 0.39 0.39 94 1010.3
20260509175527 46 76 0.0 3.0 0.17 0.38 0.38 94 1010.3
20260509175143 46 76 1.0 3.0 0.16 0.36 0.36 94 1010.4
20260509174758 46 73 0.0 3.0 0.16 0.35 0.35 94 1010.4
20260509174142 45 77 0.0 3.0 0.14 0.33 0.33 94 1010.5
20260509173528 46 21 2.0 3.0 0.09 0.32 0.32 94 1010.5
20260509173028 46 66 1.0 3.0 0.09 0.31 0.31 94 1010.6
20260509172528 45 33 0.0 4.0 0.07 0.31 0.31 94 1010.6
20260509172027 45 59 4.0 4.0 0.08 0.30 0.30 94 1010.6
20260509171528 45 87 2.0 3.0 0.08 0.30 0.30 93 1010.7
20260509171027 45 64 2.0 4.0 0.08 0.28 0.28 93 1010.8
20260509170528 45 55 2.0 4.0 0.07 0.28 0.28 93 1010.7
20260509170028 45 339 2.0 3.0 0.07 0.28 0.28 93 1010.8
20260509165527 45 339 1.0 3.0 0.08 0.27 0.27 93 1010.9
20260509165143 45 63 0.0 4.0 0.08 0.26 0.26 93 1010.9
20260509164529 45 74 1.0 4.0 0.05 0.26 0.26 93 1010.9
20260509164027 45 4 0.0 5.0 0.04 0.25 0.25 93 1010.9
20260509163642 45 42 2.0 5.0 0.04 0.25 0.25 93 1010.9
20260509163028 45 4 4.0 4.0 0.04 0.24 0.24 93 1011.0
20260509162643 45 33 2.0 4.0 0.05 0.24 0.24 93 1011.1
20260509162142 45 11 2.0 4.0 0.07 0.24 0.24 93 1011.1
20260509161529 45 83 3.0 4.0 0.07 0.24 0.24 93 1011.1
20260509161027 45 74 2.0 4.0 0.05 0.23 0.23 93 1011.2